Snow/Ice From: 16-12-2017 16:00 Until: 17-12-2017 16:00 warning for: Snow/Ice Level: Yellow info button

Although rather usual in this region, locally or potentially dangerous phenomena are expected. (such as local winds, summer thunderstorms, rising streams or high waves) Be aware and pay attention to the latest weather updates, especially if you carry out activities exposed to weather or close to a stream or shoreline. 


Meteo18 Weather Cam more information Meteo18 Weather Cam


Thunder radar more information blitzortung!


warning for Snow/Ice more information rain snow radar


Visit our other weather sites:

Template documentation
and downloads

And another site



Weather Underground History page Text

Daily Summary for December 08, 2017 Units:  Metric    English   Both
« Previous Day
Next Day »
Daily Weekly Monthly Yearly Custom
  High: Low: Average:
Temperature: 7.7 °C 0.8 °C 4 °C
Dew Point: 7.2 °C -0.5 °C 2.2 °C
Humidity: 97 % 70 % 89 %
Wind Speed: 40.2 km/h 0.0 km/h 9.7 km/h
Wind Gust: 53.1 km/h - -
Wind:- - WNW
Pressure: 1022.2 hPa 1016.8 hPa -
Precipitation: 1.3 mm    
Historical Graphs
 
 
Tabular Data for December 08, 2017
Time Temperature Dew Point Pressure Wind Wind Speed Wind Gust Humidity Rainfall Rate (Hourly)
00:02 6.9 °C 6.5 °C 1017.2 hPa WSW 9.7 km/h 19.3 km/h 97 % 0.8 mm
00:12 7.1 °C 6.7 °C 1017.2 hPa WSW 14.5 km/h 20.9 km/h 97 % 1.0 mm
00:17 7.2 °C 6.8 °C 1016.8 hPa WSW 17.7 km/h 24.1 km/h 97 % 1.0 mm
00:42 7.5 °C 7.1 °C 1016.8 hPa WSW 6.4 km/h 25.7 km/h 97 % 1.0 mm
00:52 7.5 °C 7.1 °C 1016.8 hPa West 9.7 km/h 20.9 km/h 97 % 0.8 mm
00:57 7.5 °C 7.1 °C 1016.8 hPa West 8.0 km/h 17.7 km/h 97 % 0.8 mm
01:02 7.5 °C 7.1 °C 1017.2 hPa West 6.4 km/h 20.9 km/h 97 % 0.5 mm
01:07 7.6 °C 7.2 °C 1016.8 hPa West 9.7 km/h 20.9 km/h 97 % 0.3 mm
01:17 7.6 °C 7.2 °C 1016.8 hPa West 11.3 km/h 19.3 km/h 97 % 0.3 mm
01:22 7.6 °C 7.0 °C 1016.8 hPa West 3.2 km/h 19.3 km/h 96 % 0.0 mm
01:27 7.7 °C 7.1 °C 1016.8 hPa NNW 14.5 km/h 19.3 km/h 96 % 0.0 mm
01:47 7.4 °C 6.7 °C 1017.2 hPa NNW 4.8 km/h 11.3 km/h 95 % 0.0 mm
01:57 7.2 °C 6.1 °C 1017.5 hPa WNW 6.4 km/h 16.1 km/h 93 % 0.0 mm
02:02 7.1 °C 6.0 °C 1017.5 hPa NNW 9.7 km/h 19.3 km/h 93 % 0.0 mm
02:07 7.0 °C 5.9 °C 1017.5 hPa North 8.0 km/h 19.3 km/h 93 % 0.0 mm
02:12 6.9 °C 5.7 °C 1017.5 hPa NNW 4.8 km/h 17.7 km/h 92 % 0.0 mm
02:22 6.9 °C 5.7 °C 1017.5 hPa West 1.6 km/h 11.3 km/h 92 % 0.0 mm
02:27 6.8 °C 5.6 °C 1017.5 hPa WNW 3.2 km/h 11.3 km/h 92 % 0.0 mm
02:42 6.8 °C 5.6 °C 1017.8 hPa Calm   6.4 km/h 92 % 0.0 mm
02:47 6.7 °C 5.5 °C 1017.8 hPa Calm   8.0 km/h 92 % 0.0 mm
03:02 6.7 °C 5.3 °C 1017.8 hPa WNW 3.2 km/h 6.4 km/h 91 % 0.0 mm
03:17 6.5 °C 5.1 °C 1018.2 hPa WNW 3.2 km/h 11.3 km/h 91 % 0.0 mm
03:22 6.4 °C 5.0 °C 1018.2 hPa WNW 4.8 km/h 11.3 km/h 91 % 0.0 mm
03:27 6.3 °C 5.1 °C 1018.2 hPa WNW 4.8 km/h 11.3 km/h 92 % 0.0 mm
03:32 6.2 °C 5.0 °C 1018.2 hPa WNW 3.2 km/h 11.3 km/h 92 % 0.0 mm
03:42 6.0 °C 4.8 °C 1018.5 hPa WNW 4.8 km/h 12.9 km/h 92 % 0.0 mm
04:02 5.5 °C 4.3 °C 1018.5 hPa WNW 4.8 km/h 12.9 km/h 92 % 0.0 mm
04:07 5.5 °C 4.3 °C 1018.5 hPa WNW 8.0 km/h 12.9 km/h 92 % 0.0 mm
04:17 5.4 °C 4.2 °C 1018.8 hPa WNW 3.2 km/h 14.5 km/h 92 % 0.0 mm
04:22 5.4 °C 4.2 °C 1018.8 hPa NW 6.4 km/h 12.9 km/h 92 % 0.0 mm
04:27 5.3 °C 4.1 °C 1018.8 hPa West 3.2 km/h 11.3 km/h 92 % 0.0 mm
04:37 5.3 °C 4.1 °C 1018.8 hPa WNW 12.9 km/h 12.9 km/h 92 % 0.0 mm
04:42 5.3 °C 4.1 °C 1018.8 hPa West 4.8 km/h 14.5 km/h 92 % 0.0 mm
04:52 5.1 °C 3.9 °C 1018.8 hPa WNW 3.2 km/h 14.5 km/h 92 % 0.0 mm
04:57 5.1 °C 3.9 °C 1018.8 hPa WSW 3.2 km/h 9.7 km/h 92 % 0.0 mm
05:02 5.0 °C 3.7 °C 1018.8 hPa WNW 4.8 km/h 9.7 km/h 91 % 0.0 mm
05:12 4.8 °C 3.5 °C 1018.8 hPa WNW 3.2 km/h 8.0 km/h 91 % 0.0 mm
05:17 4.7 °C 3.5 °C 1018.8 hPa West 4.8 km/h 8.0 km/h 92 % 0.0 mm
05:22 4.6 °C 3.4 °C 1019.2 hPa Calm   8.0 km/h 92 % 0.0 mm
05:32 4.3 °C 3.1 °C 1019.2 hPa West 3.2 km/h 8.0 km/h 92 % 0.0 mm
05:42 4.1 °C 3.1 °C 1019.2 hPa West 4.8 km/h 8.0 km/h 93 % 0.0 mm
05:47 4.1 °C 3.1 °C 1019.2 hPa WNW 6.4 km/h 9.7 km/h 93 % 0.0 mm
05:52 4.1 °C 3.1 °C 1019.2 hPa West 3.2 km/h 14.5 km/h 93 % 0.0 mm
05:57 4.1 °C 3.1 °C 1019.2 hPa West 3.2 km/h 14.5 km/h 93 % 0.0 mm
06:12 3.9 °C 2.9 °C 1019.2 hPa West 9.7 km/h 9.7 km/h 93 % 0.0 mm
06:17 3.9 °C 2.9 °C 1019.2 hPa WNW 1.6 km/h 9.7 km/h 93 % 0.0 mm
06:32 3.8 °C 2.8 °C 1019.2 hPa West 3.2 km/h 9.7 km/h 93 % 0.0 mm
06:42 3.8 °C 2.9 °C 1019.2 hPa West 6.4 km/h 9.7 km/h 94 % 0.0 mm
06:47 3.8 °C 2.9 °C 1019.2 hPa West 3.2 km/h 9.7 km/h 94 % 0.0 mm
06:57 3.9 °C 3.0 °C 1019.2 hPa West 4.8 km/h 11.3 km/h 94 % 0.0 mm
07:02 3.9 °C 3.0 °C 1019.2 hPa West 6.4 km/h 14.5 km/h 94 % 0.0 mm
07:12 4.1 °C 3.1 °C 1019.2 hPa West 4.8 km/h 12.9 km/h 93 % 0.0 mm
07:17 4.1 °C 3.1 °C 1019.2 hPa West 9.7 km/h 12.9 km/h 93 % 0.0 mm
07:27 4.1 °C 3.1 °C 1019.5 hPa West 9.7 km/h 14.5 km/h 93 % 0.0 mm
07:37 4.3 °C 3.1 °C 1019.2 hPa West 9.7 km/h 20.9 km/h 92 % 0.0 mm
07:42 4.3 °C 3.0 °C 1019.2 hPa West 4.8 km/h 20.9 km/h 91 % 0.0 mm
07:47 4.3 °C 3.0 °C 1019.2 hPa West 6.4 km/h 20.9 km/h 91 % 0.0 mm
07:57 4.3 °C 2.6 °C 1019.2 hPa West 12.9 km/h 14.5 km/h 89 % 0.0 mm
08:07 4.2 °C 2.7 °C 1019.2 hPa West 8.0 km/h 19.3 km/h 90 % 0.0 mm
08:12 4.1 °C 2.8 °C 1019.2 hPa WSW 16.1 km/h 19.3 km/h 91 % 0.0 mm
08:27 4.2 °C 3.0 °C 1019.5 hPa West 16.1 km/h 20.9 km/h 92 % 0.0 mm
08:32 4.3 °C 3.1 °C 1019.5 hPa West 17.7 km/h 20.9 km/h 92 % 0.0 mm
08:37 4.4 °C 3.2 °C 1019.5 hPa West 12.9 km/h 22.5 km/h 92 % 0.0 mm
08:47 4.4 °C 3.1 °C 1019.5 hPa West 12.9 km/h 22.5 km/h 91 % 0.0 mm
08:52 4.3 °C 3.1 °C 1019.5 hPa WSW 6.4 km/h 19.3 km/h 92 % 0.0 mm
08:57 4.2 °C 3.0 °C 1019.5 hPa West 8.0 km/h 19.3 km/h 92 % 0.0 mm
09:02 4.2 °C 3.0 °C 1019.2 hPa WSW 6.4 km/h 19.3 km/h 92 % 0.0 mm
09:12 3.9 °C 2.7 °C 1019.9 hPa West 4.8 km/h 17.7 km/h 92 % 0.0 mm
09:17 3.9 °C 2.9 °C 1019.9 hPa WSW 4.8 km/h 14.5 km/h 93 % 0.0 mm
09:32 4.3 °C 3.0 °C 1019.9 hPa WNW 11.3 km/h 16.1 km/h 91 % 0.0 mm
09:42 4.7 °C 3.4 °C 1020.2 hPa WNW 9.7 km/h 22.5 km/h 91 % 0.0 mm
09:47 4.9 °C 3.4 °C 1020.2 hPa WNW 17.7 km/h 27.4 km/h 90 % 0.0 mm
09:52 5.0 °C 3.5 °C 1020.2 hPa WNW 6.4 km/h 32.2 km/h 90 % 0.0 mm
09:57 4.9 °C 3.4 °C 1020.2 hPa West 11.3 km/h 32.2 km/h 90 % 0.0 mm
10:02 4.8 °C 3.3 °C 1020.5 hPa WNW 19.3 km/h 32.2 km/h 90 % 0.0 mm
10:12 4.6 °C 3.3 °C 1020.2 hPa West 9.7 km/h 29.0 km/h 91 % 0.0 mm
10:17 4.5 °C 3.0 °C 1020.2 hPa West 8.0 km/h 25.7 km/h 90 % 0.3 mm
10:27 4.5 °C 3.0 °C 1020.2 hPa West 9.7 km/h 22.5 km/h 90 % 0.3 mm
10:32 4.5 °C 2.8 °C 1020.5 hPa West 12.9 km/h 22.5 km/h 89 % 0.3 mm
10:42 4.7 °C 2.9 °C 1020.5 hPa West 9.7 km/h 17.7 km/h 88 % 0.3 mm
10:47 4.7 °C 3.0 °C 1020.5 hPa West 6.4 km/h 17.7 km/h 89 % 0.3 mm
10:57 5.0 °C 3.3 °C 1020.9 hPa West 11.3 km/h 16.1 km/h 89 % 0.3 mm
11:12 5.3 °C 3.5 °C 1020.9 hPa West 6.4 km/h 19.3 km/h 88 % 0.0 mm
11:27 5.4 °C 3.4 °C 1021.2 hPa West 9.7 km/h 29.0 km/h 87 % 0.0 mm
11:32 5.4 °C 3.2 °C 1021.2 hPa West 14.5 km/h 29.0 km/h 86 % 0.0 mm
11:42 5.6 °C 3.1 °C 1020.9 hPa WNW 8.0 km/h 20.9 km/h 84 % 0.0 mm
11:47 5.7 °C 3.5 °C 1020.9 hPa West 14.5 km/h 20.9 km/h 86 % 0.0 mm
11:57 5.7 °C 3.2 °C 1020.9 hPa WNW 6.4 km/h 24.1 km/h 84 % 0.0 mm
12:02 5.7 °C 3.0 °C 1020.9 hPa SW 9.7 km/h 24.1 km/h 83 % 0.0 mm
12:12 5.7 °C 3.0 °C 1020.9 hPa WSW 14.5 km/h 27.4 km/h 83 % 0.0 mm
12:17 5.7 °C 3.0 °C 1020.9 hPa West 12.9 km/h 27.4 km/h 83 % 0.0 mm
12:22 5.6 °C 2.8 °C 1020.9 hPa WSW 17.7 km/h 27.4 km/h 82 % 0.0 mm
12:32 5.7 °C 2.5 °C 1020.5 hPa West 14.5 km/h 27.4 km/h 80 % 0.0 mm
12:42 5.8 °C 2.6 °C 1020.5 hPa West 17.7 km/h 29.0 km/h 80 % 0.0 mm
12:47 5.8 °C 2.8 °C 1020.5 hPa WSW 11.3 km/h 29.0 km/h 81 % 0.0 mm
13:02 5.7 °C 2.7 °C 1020.5 hPa West 8.0 km/h 29.0 km/h 81 % 0.0 mm
13:07 5.8 °C 2.6 °C 1020.5 hPa WNW 16.1 km/h 29.0 km/h 80 % 0.0 mm
13:12 5.8 °C 2.4 °C 1020.5 hPa WNW 14.5 km/h 29.0 km/h 79 % 0.0 mm
13:17 5.9 °C 2.2 °C 1020.5 hPa NW 20.9 km/h 29.0 km/h 77 % 0.0 mm
13:22 5.8 °C 2.3 °C 1020.5 hPa West 19.3 km/h 29.0 km/h 78 % 0.0 mm
13:27 5.9 °C 2.4 °C 1020.5 hPa West 14.5 km/h 29.0 km/h 78 % 0.0 mm
13:37 6.0 °C 1.9 °C 1020.2 hPa West 16.1 km/h 30.6 km/h 75 % 0.0 mm
13:52 5.8 °C 1.1 °C 1020.2 hPa West 17.7 km/h 35.4 km/h 72 % 0.0 mm
13:57 5.7 °C 1.0 °C 1019.9 hPa West 11.3 km/h 35.4 km/h 72 % 0.0 mm
14:02 5.6 °C 1.0 °C 1020.2 hPa NW 22.5 km/h 35.4 km/h 72 % 0.0 mm
14:12 5.6 °C 1.1 °C 1020.2 hPa WSW 9.7 km/h 29.0 km/h 73 % 0.0 mm
14:22 5.6 °C 0.8 °C 1020.2 hPa West 27.4 km/h 30.6 km/h 71 % 0.0 mm
14:27 5.6 °C 1.0 °C 1020.2 hPa West 27.4 km/h 30.6 km/h 72 % 0.0 mm
14:32 5.6 °C 1.0 °C 1020.2 hPa NW 12.9 km/h 30.6 km/h 72 % 0.0 mm
14:42 5.7 °C 1.0 °C 1019.9 hPa West 6.4 km/h 30.6 km/h 72 % 0.0 mm
14:57 5.9 °C 1.2 °C 1019.9 hPa WSW 8.0 km/h 27.4 km/h 72 % 0.0 mm
15:02 5.9 °C 1.2 °C 1019.9 hPa WNW 8.0 km/h 25.7 km/h 72 % 0.0 mm
15:12 5.7 °C 0.9 °C 1019.9 hPa West 12.9 km/h 25.7 km/h 71 % 0.0 mm
15:27 5.7 °C 1.0 °C 1019.9 hPa WNW 16.1 km/h 25.7 km/h 72 % 0.0 mm
15:32 5.8 °C 0.9 °C 1019.9 hPa WNW 11.3 km/h 25.7 km/h 71 % 0.0 mm
15:42 5.5 °C 0.7 °C 1019.5 hPa WNW 14.5 km/h 33.8 km/h 71 % 0.0 mm
15:52 5.3 °C 0.7 °C 1019.9 hPa WNW 25.7 km/h 33.8 km/h 72 % 0.0 mm
15:57 5.2 °C 0.2 °C 1019.9 hPa WNW 40.2 km/h 40.2 km/h 70 % 0.0 mm
16:02 4.4 °C 0.5 °C 1020.2 hPa West 17.7 km/h 53.1 km/h 76 % 0.0 mm
16:12 3.7 °C 0.2 °C 1019.9 hPa West 14.5 km/h 53.1 km/h 78 % 0.0 mm
16:17 3.7 °C 0.4 °C 1019.9 hPa WNW 11.3 km/h 40.2 km/h 79 % 0.0 mm
16:42 3.8 °C 0.8 °C 1019.9 hPa WNW 8.0 km/h 11.3 km/h 81 % 0.0 mm
17:02 2.3 °C 0.2 °C 1020.5 hPa NW 16.1 km/h 30.6 km/h 86 % 0.0 mm
17:07 1.4 °C -0.2 °C 1020.9 hPa WNW 12.9 km/h 41.8 km/h 89 % 0.0 mm
17:17 1.1 °C 0.1 °C 1020.9 hPa NW 6.4 km/h 41.8 km/h 93 % 0.0 mm
17:22 1.1 °C 0.1 °C 1020.9 hPa NNW 4.8 km/h 17.7 km/h 93 % 0.0 mm
17:27 1.1 °C 0.1 °C 1020.9 hPa WNW 4.8 km/h 17.7 km/h 93 % 0.0 mm
17:32 1.1 °C 0.1 °C 1020.9 hPa WNW 6.4 km/h 17.7 km/h 93 % 0.0 mm
17:42 1.1 °C 0.1 °C 1020.9 hPa WNW 11.3 km/h 19.3 km/h 93 % 0.0 mm
17:47 1.2 °C 0.2 °C 1020.9 hPa WNW 6.4 km/h 19.3 km/h 93 % 0.0 mm
17:57 1.3 °C 0.1 °C 1020.9 hPa WNW 3.2 km/h 17.7 km/h 92 % 0.0 mm
18:07 1.3 °C 0.1 °C 1020.9 hPa West 9.7 km/h 16.1 km/h 92 % 0.0 mm
18:12 1.4 °C 0.1 °C 1020.9 hPa NW 6.4 km/h 16.1 km/h 91 % 0.0 mm
18:17 1.5 °C 0.2 °C 1020.9 hPa West 9.7 km/h 14.5 km/h 91 % 0.0 mm
18:22 1.6 °C 0.1 °C 1020.9 hPa West 8.0 km/h 14.5 km/h 90 % 0.0 mm
18:27 1.6 °C 0.1 °C 1020.9 hPa West 11.3 km/h 17.7 km/h 90 % 0.0 mm
18:32 1.6 °C 0.1 °C 1020.9 hPa WNW 3.2 km/h 17.7 km/h 90 % 0.0 mm
18:42 1.6 °C 0.1 °C 1020.9 hPa West 4.8 km/h 14.5 km/h 90 % 0.0 mm
18:57 1.6 °C 0.3 °C 1021.2 hPa WNW 14.5 km/h 14.5 km/h 91 % 0.0 mm
19:02 1.6 °C 0.3 °C 1021.2 hPa WNW 16.1 km/h 32.2 km/h 91 % 0.0 mm
19:12 1.6 °C 0.3 °C 1021.2 hPa WNW 14.5 km/h 32.2 km/h 91 % 0.3 mm
19:17 1.6 °C 0.3 °C 1021.2 hPa West 11.3 km/h 29.0 km/h 91 % 0.5 mm
19:27 1.6 °C 0.1 °C 1021.2 hPa West 6.4 km/h 29.0 km/h 90 % 0.5 mm
19:32 1.6 °C 0.3 °C 1021.2 hPa WNW 8.0 km/h 19.3 km/h 91 % 0.5 mm
19:42 1.4 °C 0.1 °C 1021.6 hPa West 6.4 km/h 17.7 km/h 91 % 0.5 mm
19:47 1.3 °C 0.0 °C 1021.6 hPa WSW 8.0 km/h 17.7 km/h 91 % 0.5 mm
19:57 1.3 °C 0.0 °C 1021.6 hPa West 14.5 km/h 19.3 km/h 91 % 0.5 mm
20:07 1.3 °C 0.0 °C 1021.6 hPa WSW 12.9 km/h 19.3 km/h 91 % 0.5 mm
20:12 1.3 °C 0.0 °C 1021.6 hPa WSW 8.0 km/h 19.3 km/h 91 % 0.3 mm
20:22 1.3 °C -0.2 °C 1021.6 hPa WNW 11.3 km/h 17.7 km/h 90 % 0.0 mm
20:27 1.4 °C -0.2 °C 1021.6 hPa WNW 9.7 km/h 20.9 km/h 89 % 0.0 mm
20:32 1.4 °C -0.2 °C 1021.6 hPa NW 6.4 km/h 22.5 km/h 89 % 0.0 mm
20:37 1.4 °C -0.2 °C 1021.6 hPa West 14.5 km/h 22.5 km/h 89 % 0.0 mm
20:42 1.4 °C -0.2 °C 1021.6 hPa WNW 3.2 km/h 22.5 km/h 89 % 0.0 mm
20:47 1.3 °C -0.3 °C 1021.6 hPa West 3.2 km/h 19.3 km/h 89 % 0.0 mm
20:52 1.3 °C -0.2 °C 1021.6 hPa WNW 4.8 km/h 14.5 km/h 90 % 0.0 mm
20:57 1.3 °C -0.2 °C 1021.6 hPa West 6.4 km/h 14.5 km/h 90 % 0.0 mm
21:02 1.3 °C -0.2 °C 1021.6 hPa West 8.0 km/h 14.5 km/h 90 % 0.0 mm
21:12 1.3 °C 0.0 °C 1021.9 hPa WNW 4.8 km/h 24.1 km/h 91 % 0.0 mm
21:17 1.3 °C 0.0 °C 1021.9 hPa WNW 11.3 km/h 24.1 km/h 91 % 0.0 mm
21:22 1.3 °C 0.0 °C 1021.9 hPa NNW 8.0 km/h 24.1 km/h 91 % 0.0 mm
21:27 1.3 °C 0.0 °C 1021.9 hPa West 16.1 km/h 24.1 km/h 91 % 0.0 mm
21:37 1.3 °C 0.0 °C 1021.9 hPa West 12.9 km/h 24.1 km/h 91 % 0.0 mm
21:42 1.3 °C 0.0 °C 1021.9 hPa WNW 14.5 km/h 24.1 km/h 91 % 0.0 mm
21:47 1.3 °C 0.0 °C 1021.9 hPa West 11.3 km/h 20.9 km/h 91 % 0.0 mm
21:57 1.4 °C 0.1 °C 1021.9 hPa WNW 9.7 km/h 20.9 km/h 91 % 0.0 mm
22:02 1.3 °C 0.0 °C 1021.6 hPa West 11.3 km/h 19.3 km/h 91 % 0.0 mm
22:12 1.3 °C -0.2 °C 1021.6 hPa WNW 14.5 km/h 27.4 km/h 90 % 0.0 mm
22:17 1.2 °C -0.3 °C 1021.6 hPa WNW 11.3 km/h 27.4 km/h 90 % 0.0 mm
22:22 1.2 °C -0.3 °C 1021.6 hPa WNW 11.3 km/h 27.4 km/h 90 % 0.0 mm
22:27 1.2 °C -0.3 °C 1021.6 hPa West 8.0 km/h 22.5 km/h 90 % 0.0 mm
22:37 1.2 °C -0.3 °C 1021.6 hPa WNW 6.4 km/h 19.3 km/h 90 % 0.0 mm
22:42 1.2 °C -0.3 °C 1021.9 hPa West 8.0 km/h 20.9 km/h 90 % 0.0 mm
22:52 1.1 °C -0.4 °C 1021.6 hPa NW 4.8 km/h 16.1 km/h 90 % 0.0 mm
22:57 1.1 °C -0.4 °C 1021.6 hPa WNW 16.1 km/h 16.1 km/h 90 % 0.0 mm
23:02 1.1 °C -0.4 °C 1021.6 hPa NW 8.0 km/h 22.5 km/h 90 % 0.0 mm
23:12 1.1 °C -0.4 °C 1021.6 hPa West 16.1 km/h 22.5 km/h 90 % 0.0 mm
23:17 1.0 °C -0.5 °C 1021.6 hPa West 8.0 km/h 22.5 km/h 90 % 0.0 mm
23:32 0.8 °C -0.5 °C 1021.9 hPa WNW 17.7 km/h 17.7 km/h 91 % 0.0 mm
23:37 0.8 °C -0.5 °C 1021.9 hPa WNW 3.2 km/h 20.9 km/h 91 % 0.0 mm
23:42 0.8 °C -0.4 °C 1021.9 hPa SW 4.8 km/h 20.9 km/h 92 % 0.0 mm
23:47 0.8 °C -0.4 °C 1022.2 hPa WNW 4.8 km/h 19.3 km/h 92 % 0.0 mm
23:52 0.8 °C -0.4 °C 1022.2 hPa West 17.7 km/h 17.7 km/h 92 % 0.0 mm
23:57 0.9 °C -0.3 °C 1021.9 hPa WNW 11.3 km/h 19.3 km/h 92 % 0.0 mm
Meteo18
Compliments of Weather Underground - 4 mb

Script developed by  Jim McMurry - jmcmurry@mwt.net Adapted for the template by  Wim van der Kuil - Leuven-Template.eu

You find our weather info also at:

European Weather Network

Weather Underground

Equipment we use:

Weather-station
Davis Vue

Weather-program
Meteohub

Weather-server
Raspberry PI 2 B+

Provider
1 and 1

Davis Vue

Meteohub

Raspberry PI 2 B+

1 and 1